Regional Weather Roundup
Issued by NWS

Home | Current Version | Previous Version | Text Only | Print | Product List | Glossary On
Versions: 1 2 3 4 5 6 7 8 9 10 11 12 13 14 15 16 17 18 19 20 21 22 23 24 25 26 27 28 29 30 31 32 33 34 35 36 37 38 39 40 41 42 43 44 45 46 47 48 49 50
000
ASUS43 KLMK 242010
RWRKY
KENTUCKY REGIONAL WEATHER ROUNDUP
NATIONAL WEATHER SERVICE LOUISVILLE KY
400 PM EDT FRI APR 24 2015

NOTE "FAIR" INDICATES FEW OR NO CLOUDS BELOW 12,000 FEET
WITH NO SIGNIFICANT WEATHER AND/OR OBSTRUCTIONS TO VISIBILITY.

KYZ001>023-026-027-061>063-070>075-242100-
WESTERN AND SOUTH CENTRAL KENTUCKY

CITY           SKY/WX    TMP DP  RH WIND       PRES   REMARKS
PADUCAH        CLOUDY    62  33  33 S7        29.97F
HENDERSON      CLOUDY    64  28  25 E10       29.97F
OWENSBORO      CLOUDY    66  30  26 SE10      29.99F
HOPKINSVILLE   CLOUDY    64  31  29 E10       29.98F
BOWLING GREEN  CLOUDY    63  34  33 E7        30.01F
GLASGOW        CLOUDY    65  29  26 E3        30.01F
$$

KYZ024-025-028>034-038-045-046-053-242100-
NORTH CENTRAL KENTUCKY

CITY           SKY/WX    TMP DP  RH WIND       PRES   REMARKS
LOUISVILLE/SDF CLOUDY    64  22  20 S6        30.01F
LOUISVILLE/LOU CLOUDY    63  26  24 CALM      30.02F
FORT KNOX      CLOUDY    64  22  20 SE5       29.99F
$$

KYZ035>037-039>044-047>052-055>060-089>105-242100-
NORTHEAST KENTUCKY

CITY           SKY/WX    TMP DP  RH WIND       PRES   REMARKS
LEXINGTON      PTSUNNY   60  28  29 SW6       30.04F
COVINGTON      CLOUDY    60  23  24 CALM      30.02F
FRANKFORT      PTSUNNY   60  27  28 E6        30.02F
$$

KYZ054-064>069-076>088-106>120-242100-
SOUTHEAST KENTUCKY

CITY           SKY/WX    TMP DP  RH WIND       PRES   REMARKS
JACKSON        PTSUNNY   61  18  18 VRB3      30.03F
LONDON         MOSUNNY   65  14  14 VRB3      30.02F
SOMERSET       PTSUNNY   63  28  27 W3        30.02F
MIDDLESBORO    SUNNY     67  24  19 CALM      30.02F
MONTICELLO     PTCLDY    67  28  23 E5        30.04F
$$




USA.gov is the U.S. government's official web portal to all federal, state and local government web resources and services.